User: anonymous   Login
Location: Unspecified
(0.0000°N, 0.0000°E)
Time: 07:25:03
(UTC+01:00)
Language:

Ariane 42L R/B - Orbit

View from above orbital plane
View from above orbital plane
View from above satellite
View from above satellite

Ground track
Ground track

The orbit data is extracted from the following two-line orbital elements,

1 26299U 00020B   17080.55569560 +.00001314 +00000-0 +53035-3 0  9995
2 26299 007.4984 019.7248 5927019 082.0406 337.5461 04.11257912215319
Epoch (UTC): 21 March 2017 13:20:12
Eccentricity: 0.5927019
inclination: 7.4984°
perigee height: 324 km
apogee height: 19831 km
right ascension of ascending node: 19.7248°
argument of perigee: 82.0406°
revolutions per day: 4.11257912
mean anomaly at epoch: 337.5461°
orbit number at epoch: 21531

The dashed part of the orbit path shows where the satellite is in the earth's shadow,  

DLR